Flag for U.S.A. Weather past 2 weeks in Anderson, South Carolina, U.S.A.

Now
65 °F

Clear.


Feels Like: 65 °F
Forecast: 61 / 77 °F
Wind: 3 mph from East

Location: Anderson County Airport

Current Time: Sep 22, 2014 at 8:25:54 AM

Latest Report: Sep 22, 2014 at 7:56 AM


Visibility: 10 mi

Pressure: 30.00 "Hg

Humidity: 91%

Dew point: 62 °F

Location of AndersonLocation

Historic Weather in Anderson — Graph

°F

Anderson temperature yesterday

Maximum temperature yesterday: 86 °F (at 2:56 PM)
Minimum temperature yesterday: 59 °F (at 5:56 AM)
Average temperature yesterday: 74 °F

Past Weeks' High & Low Weather Summary

 TemperatureHumidityPressure
High90 °F (Sep 12, 4:56 PM)97% (Sep 7, 10:56 PM)30.24 "Hg (Sep 7, 10:56 PM)
Low59 °F (Sep 21, 5:56 AM)44% (Sep 20, 3:56 PM)29.86 "Hg (Sep 21, 4:56 PM)
Average73 °F80%30.04 "Hg
* Reported Sep 7 6:56 AM — Sep 22 6:56 AM, Anderson, Weather by CustomWeather, © 2014

Note: Actual official high and low records may vary slightly from our data, if they occured in-between our weather recording intervals... More about our weather records

Advertising

Anderson weather history for previous 24 hours

 ConditionsComfort  
Time TempWeatherWind HumidityBarometerVisibility
6:56 AM
Sep 22
68 °FPassing clouds.No wind84%29.97 "Hg10 mi
5:56 AM68 °FPassing clouds.3 mph93%29.94 "Hg10 mi
4:56 AM71 °FPassing clouds.No wind84%29.93 "Hg10 mi
3:56 AM71 °FOvercast.3 mph87%29.91 "Hg10 mi
2:56 AM71 °FPassing clouds.3 mph87%29.90 "Hg10 mi
1:56 AM72 °FOvercast.5 mph87%29.91 "Hg10 mi
12:56 AM75 °FMostly cloudy.3 mph74%29.90 "Hg10 mi
11:56 PM
Sep 21
78 °FMostly cloudy.9 mph62%29.90 "Hg10 mi
10:56 PM77 °FMostly cloudy.6 mph66%29.90 "Hg10 mi
9:56 PM77 °FPassing clouds.5 mph64%29.90 "Hg10 mi
8:56 PM78 °FPartly cloudy.9 mph62%29.90 "Hg10 mi
7:56 PM79 °FPartly sunny.8 mph60%29.88 "Hg10 mi
6:56 PM82 °FSunny.9 mph55%29.88 "Hg10 mi
5:56 PM85 °FSunny.10 mph50%29.86 "Hg10 mi
4:56 PM86 °FSunny.14 mph46%29.86 "Hg10 mi
3:56 PM86 °FSunny.14 mph46%29.88 "Hg10 mi
2:56 PM86 °FSunny.15 mph46%29.89 "Hg10 mi
1:56 PM85 °FSunny.13 mph50%29.92 "Hg10 mi
12:56 PM83 °FSunny.12 mph55%29.96 "Hg10 mi
11:56 AM81 °FSunny.12 mph54%29.98 "Hg10 mi
10:56 AM78 °FSunny.8 mph60%29.99 "Hg10 mi
9:56 AM73 °FSunny.8 mph71%30.00 "Hg10 mi
8:56 AM66 °FSunny.3 mph93%29.99 "Hg10 mi
Weather by CustomWeather, © 2014

See weather overviewHow to use our weather pages